This is the latest recevied weather packets stored in our database for station/object SP2WPY-13. If no packets are shown the sender has not sent any weather packets the latest 1 day(s).
| Time | Temp. | Humidity | Pressure | Rain* | Wind** | Luminosity | Snow |
|---|---|---|---|---|---|---|---|
| 1778072200 | 6.11° C | 100% | 1011 hPa | - | - | - | - |
| 1778070693 | 6.11° C | 100% | 1011.2 hPa | - | - | - | - |
| 1778070100 | 6.11° C | 100% | 1011.2 hPa | - | - | - | - |
| 1778069779 | 6.11° C | 100% | 1011.2 hPa | - | - | - | - |
| 1778068866 | 5.56° C | 100% | 1011.1 hPa | - | - | - | - |
| 1778068272 | 5.56° C | 100% | 1011.2 hPa | - | - | - | - |
| 1778067999 | 5.56° C | 100% | 1011.2 hPa | - | - | - | - |
| 1778067680 | 5.56° C | 100% | 1011.4 hPa | - | - | - | - |
| 1778067405 | 5.56° C | 100% | 1011.1 hPa | - | - | - | - |
| 1778067086 | 5.56° C | 100% | 1011.1 hPa | - | - | - | - |
| 1778066173 | 5.56° C | 100% | 1011.1 hPa | - | - | - | - |
| 1778065579 | 5.56° C | 100% | 1011 hPa | - | - | - | - |
| 1778065304 | 6.11° C | 100% | 1011 hPa | - | - | - | - |
| 1778064072 | 6.11° C | 100% | 1011.2 hPa | - | - | - | - |
| 1778063798 | 6.11° C | 100% | 1011.4 hPa | - | - | - | - |
| 1778063478 | 6.11° C | 100% | 1011.2 hPa | - | - | - | - |
| 1778062885 | 6.11° C | 100% | 1011.1 hPa | - | - | - | - |
| 1778061377 | 6.11° C | 100% | 1011.1 hPa | - | - | - | - |
| 1778060784 | 6.67° C | 100% | 1011 hPa | - | - | - | - |
| 1778060190 | 6.67° C | 100% | 1010.8 hPa | - | - | - | - |
| 1778059870 | 6.67° C | 100% | 1010.6 hPa | - | - | - | - |
| 1778059597 | 6.67° C | 100% | 1010.6 hPa | - | - | - | - |
| 1778059003 | 7.22° C | 100% | 1010.6 hPa | - | - | - | - |
| 1778058364 | 7.22° C | 100% | 1010.7 hPa | - | - | - | - |
| 1778058090 | 6.67° C | 100% | 1010.7 hPa | - | - | - | - |
* Rain since midnight (hover to see other rain measurements)
** Current wind speed in m/s (hover to see current wind gust speed)